Tracking 22994 objects as of 8-May-2021
HD Live streaming from Space Station
objects crossing your sky now

FREGAT DEB

Track FREGAT DEB now!
10-day predictions


NORAD ID: 46257
Int'l Code: 2011-037KT
Perigee: 1,156.1 km
Apogee: 4,686.4 km
Inclination: 52.0 °
Period: 148.6 minutes
Semi major axis: 9292 km
RCS: Unknown
Launch date: July 18, 2011
Source: Commonwealth of Independent States (former USSR) (CIS)
Launch site: TYURATAM MISSILE AND SPACE COMPLEX (TTMTR)

Note: This is SATELLITE DEBRIS
aabbcc
Your satellite tracking list
Your tracking list is empty




NASA's NSSDC Master Catalog

Two Line Element Set (TLE):
1 46257U 11037KT  20241.30045476 -.00008515  00000-0 -11714+0 0  9998
2 46257  51.9814 247.6278 1899603 139.3785 236.5480  9.69224664   772
Source of the keplerian elements: AFSPC